Regional Weather Roundup
Issued by NWS

Home | Current Version | Previous Version | Text Only | Print | Product List | Glossary Off
Versions: 1 2 3 4 5 6 7 8 9 10 11 12 13 14 15 16 17 18 19 20 21 22 23 24 25 26 27 28 29 30 31 32 33 34 35 36 37 38 39 40 41 42 43 44 45 46 47 48 49 50

000
ASUS43 KFSD 280910
RWRSD

WEATHER ROUNDUP FOR SOUTH DAKOTA
NATIONAL WEATHER SERVICE SIOUX FALLS SD
300 AM CST WED JAN 28 2015

NOTE: "FAIR" INDICATES FEW OR NO CLOUDS BELOW 12,000 FEET WITH NO
SIGNIFICANT WEATHER AND/OR OBSTRUCTIONS TO VISIBILITY.


SDZ001>005-009-010-012>017-281000-
NORTHWEST AND NORTH CENTRAL SOUTH DAKOTA

CITY           SKY/WX    TMP DP  RH WIND       PRES   REMARKS
BUFFALO          N/A     43  31  62 W7        29.70F
FAITH            N/A     41  28  60 W13       29.74S
MOBRIDGE       MOCLDY    33  30  88 CALM      29.72S
$$

SDZ012>016-024>037-041>051-057-063-072>074-281000-
SOUTHWEST AND SOUTH CENTRAL SOUTH DAKOTA

CITY           SKY/WX    TMP DP  RH WIND       PRES   REMARKS
RAPID CTY ARPT CLOUDY    43  26  51 NW6       29.77S
PIERRE         PTCLDY    31  30  96 E3        29.71F
CUSTER         MOCLDY    44  26  49 W12G21    29.87F
ELLSWORTH AFB  CLOUDY    47  28  47 NW2       29.77R
PHILIP         MOCLDY    42  29  59 W12       29.74S
PINE RIDGE     PTCLDY    45  27  49 SW10      29.85S
SPEARFISH      FAIR      48  27  43 NW7       29.82R
WINNER         FAIR      51  31  46 SW15      29.75F
$$

SDZ004>011-016>023-039-040-281000-
NORTHEAST SOUTH DAKOTA

CITY           SKY/WX    TMP DP  RH WIND       PRES   REMARKS
ABERDEEN       PTCLDY    33  30  88 S7        29.79F WCI  27
WATERTOWN      CLEAR     33  30  88 S15       29.81F WCI  23
SISSETON         N/A     32  32 100 S17       29.84F WCI  21
$$

SDZ017-020-022-023-036>040-048>070-281000-
SOUTHEAST SOUTH DAKOTA

CITY           SKY/WX    TMP DP  RH WIND       PRES   REMARKS
SIOUX FALLS    PTCLDY    34  30  85 SE10      29.89F WCI  26
HURON          PTCLDY    34  30  85 SE14      29.78F WCI  25
CHAMBERLAIN    PTCLDY    32  31  95 E6        29.75S WCI  27
MITCHELL       PTCLDY    35  31  85 SE14      29.81F WCI  26
YANKTON        PTCLDY    34  28  80 E9        29.87F WCI  26
$$

ABBREVIATIONS USED IN REMARKS
   TC - TEMPERATURE IN CELSIUS
  WCI - WIND CHILL INDEX
   HX - HEAT INDEX
  VSB - VISIBILITY




USA.gov is the U.S. government's official web portal to all federal, state and local government web resources and services.